PST,Max TemperatureF,Mean TemperatureF,Min TemperatureF,Max Dew PointF,MeanDew PointF,Min DewpointF,Max Humidity, Mean Humidity, Min Humidity, Max Sea Level PressureIn, Mean Sea Level PressureIn, Min Sea Level PressureIn, Max VisibilityMiles, Mean VisibilityMiles, Min VisibilityMiles, Max Wind SpeedMPH, Mean Wind SpeedMPH, Max Gust SpeedMPH,PrecipitationIn, CloudCover, Events, WindDirDegrees
2012-12-1,57,51,44,45,42,39,89,75,52,29.87,29.71,29.49,10,10,6,43,13,49,0.40,8,Rain,186
2012-12-2,51,43,34,45,36,30,86,72,46,30.14,29.79,29.40,10,9,4,32,11,40,0.97,4,Rain,235
2012-12-3,49,40,30,38,32,28,92,75,50,30.26,30.16,30.06,10,10,7,25,7,33,0.08,3,Rain,45
2012-12-4,51,47,42,42,38,35,77,72,65,30.12,30.08,30.06,10,10,5,26,16,32,0.38,8,Rain,178
2012-12-5,57,48,39,45,42,36,96,83,61,30.19,30.16,30.12,10,10,7,8,3,12,0.13,4,Rain,8
2012-12-6,49,40,31,39,35,28,100,85,56,30.31,30.21,30.15,10,7,0,13,5,14,0.00,5,Fog,6
2012-12-7,36,30,24,32,27,21,100,91,82,30.34,30.27,30.18,10,5,0,9,2,14,0.00,4,Fog,195
2012-12-8,32,30,27,30,28,25,100,91,85,30.40,30.29,30.21,8,2,0,7,2,13,0.00,8,Fog,97
2012-12-9,38,33,27,32,29,25,100,90,76,30.54,30.46,30.37,10,8,2,9,2,10,0.00,5,,120
2012-12-10,35,30,25,34,28,23,100,94,85,30.55,30.42,30.25,10,1,0,7,1,7,0.00,5,Fog,288
2012-12-11,41,35,29,36,31,27,100,92,79,30.31,29.93,29.71,10,5,0,13,2,16,0.07,8,Fog-Rain,26
2012-12-12,42,33,24,34,28,22,96,79,54,30.02,29.89,29.76,10,10,10,12,3,28,T,3,,29
2012-12-13,41,31,21,29,24,18,100,89,59,30.08,29.99,29.91,10,6,0,8,2,10,0.00,2,Fog,349
2012-12-14,35,29,23,30,26,21,92,87,75,30.10,29.94,29.83,10,7,1,8,1,8,0.02,6,Snow,199
2012-12-15,31,25,19,29,24,18,91,86,81,30.09,29.97,29.90,10,8,1,9,3,10,0.02,6,Snow,27
2012-12-16,44,39,33,34,30,28,82,70,62,29.98,29.85,29.61,10,10,9,41,17,52,0.03,8,Rain,194
2012-12-17,45,35,24,36,30,21,85,75,53,30.09,29.94,29.68,10,10,9,29,9,36,0.08,3,Rain,257
2012-12-18,37,29,20,27,24,18,88,81,56,30.23,30.11,30.03,10,7,1,20,3,23,0.01,5,Snow,37
2012-12-19,40,30,19,23,19,13,88,65,38,30.27,30.17,30.03,10,10,10,39,13,46,0.00,6,,123
2012-12-20,37,35,33,28,25,18,82,69,47,30.02,29.90,29.83,10,8,1,51,24,64,T,7,Snow,172
2012-12-21,42,37,31,32,30,28,92,88,60,29.90,29.81,29.73,10,6,0,25,6,31,0.17,8,Fog-Snow,331
2012-12-22,44,38,31,34,31,28,96,84,57,29.95,29.75,29.57,10,10,10,21,5,24,0.04,7,Rain,207
2012-12-23,47,39,30,36,32,28,92,80,65,30.01,29.80,29.65,10,10,10,44,11,54,0.04,7,Rain,268
2012-12-24,41,32,23,29,27,23,92,81,55,30.29,30.21,30.04,10,10,10,8,3,12,0.00,1,,31
2012-12-25,43,36,29,31,28,25,92,78,53,30.14,29.89,29.74,10,9,1,33,11,39,0.02,8,Rain-Snow,158
2012-12-26,41,35,29,33,30,27,100,86,70,30.13,29.91,29.75,10,7,0,13,3,16,T,7,Fog,352
2012-12-27,42,34,26,32,28,23,92,86,55,30.25,30.19,30.12,10,9,2,10,2,12,T,5,Snow,345
2012-12-28,30,26,22,27,25,20,92,88,78,30.23,30.15,30.07,10,6,1,12,4,13,0.03,7,Snow,17
2012-12-29,35,28,21,29,26,19,92,90,75,30.23,30.15,30.05,10,8,2,8,2,8,0.01,7,Snow,167
2012-12-30,40,32,24,28,26,20,92,82,59,30.35,30.22,30.10,10,10,9,14,5,16,0.00,4,,28
2012-12-31,32,24,16,26,21,14,88,81,69,30.45,30.38,30.27,10,9,2,13,3,26,0.01,4,Snow,13